Dubuque, IA

4:26 PM CDT on August 24, 2019 (GMT -0500)
Dubuque Regional

Weather History for KDBQ - June, 2019

Change the Weather History Date:

Wednesday, June 12, 2019

  Actual Average Record
Temperature  
Mean Temperature 58 °F 68 °F  
Max Temperature 64 °F 78 °F 93 °F (1894)
Min Temperature 51 °F 57 °F 40 °F (1903)
Degree Days  
Heating Degree Days 8 1  
Month to date heating degree days 14 27  
Since 1 June heating degree days 14 27  
Since 1 July heating degree days 7416 7073  
Cooling Degree Days 0 4  
Month to date cooling degree days 38 37  
Year to date cooling degree days 64 74  
Since 1 June cooling degree days 38 37  
Growing Degree Days 8 (Base 50)    
Moisture  
Dew Point 55 °F    
Average Humidity 88    
Maximum Humidity 100    
Minimum Humidity 67    
Precipitation  
Precipitation 0.29 in 0.15 in 3.17 in (1944)
Month to date precipitation 2.41 1.80  
Year to date precipitation 19.65 14.67  
Snow  
Snow 0.00 in 0.00 in - ()
Month to date snowfall 0.0 0.0  
Since 1 June snowfall 0.0 0.0  
Since 1 July snowfall 55.2 41.9  
Snow Depth 0.00 in    
Sea Level Pressure  
Sea Level Pressure 29.90 in    
Wind  
Wind Speed 9 mph ()    
Max Wind Speed 23 mph    
Max Gust Speed 33 mph    
Visibility 7.8 miles    
Events Rain    
T = Trace of Precipitation, MM = Missing Value Source: Averaged Metar Reports

Daily Weather History Graph

Daily Weather History Graph

Search for Another Location

Airport or City:

Astronomy

Jun. 12, 2019 Rise Set
Actual Time 5:25 AM CDT 8:40 PM CDT
Civil Twilight 4:50 AM CDT 9:14 PM CDT
Nautical Twilight 4:06 AM CDT 9:59 PM CDT
Astronomical Twilight 3:11 AM CDT 10:54 PM CDT
Moon 3:41 PM CDT (6/12) 2:47 AM CDT (6/12)
Length of Visible Light 16h 24m
Length of Day
15h 14m
Waxing Gibbous, 77% of the Moon is Illuminated
Jun 12
Waxing Gibbous
Jun 17
Full
Jun 25
Last Quarter
Jul 2
New
Jul 9
First Quarter

Hourly Weather History & Observations

Time (CDT) Temp. Dew Point Humidity Pressure Visibility Wind Dir Wind Speed Gust Speed Precip Events Conditions
12:30 AM 57.9 °F 57.0 °F 97% 30.02 in 7.0 mi NNE 10.4 mph - 0.01 in   Overcast
1:02 AM 59.0 °F 57.9 °F 96% 29.98 in 5.0 mi NE 12.7 mph - N/A   Overcast
1:14 AM 57.9 °F 57.0 °F 97% 29.98 in 9.0 mi NE 11.5 mph - N/A   Overcast
1:53 AM 57.9 °F 57.0 °F 97% 29.95 in 8.0 mi ENE 10.4 mph - N/A   Overcast
2:53 AM 57.9 °F 57.9 °F 100% 29.95 in 8.0 mi Calm Calm - N/A   Overcast
3:05 AM 57.9 °F 57.0 °F 97% 29.96 in 7.0 mi North 4.6 mph - N/A   Overcast
3:16 AM 57.9 °F 57.0 °F 97% 29.96 in 7.0 mi North 5.8 mph - N/A   Overcast
3:40 AM 57.9 °F 57.0 °F 97% 29.95 in 7.0 mi NNE 8.1 mph - N/A   Overcast
3:53 AM 57.9 °F 57.0 °F 97% 29.95 in 7.0 mi North 8.1 mph - N/A   Mostly Cloudy
4:53 AM 57.9 °F 57.0 °F 97% 29.94 in 6.0 mi Calm Calm - N/A   Overcast
5:53 AM 57.9 °F 57.0 °F 97% 29.94 in 7.0 mi ESE 3.5 mph - 0.00 in Rain Light Rain
6:53 AM 57.9 °F 57.0 °F 97% 29.94 in 4.0 mi SSE 4.6 mph - 0.04 in Rain Light Rain
7:53 AM 57.9 °F 55.9 °F 93% 29.91 in 10.0 mi ESE 6.9 mph - 0.02 in   Overcast
8:53 AM 57.9 °F 55.0 °F 90% 29.91 in 10.0 mi SSE 6.9 mph - 0.00 in Rain Light Rain
9:18 AM 57.9 °F 55.9 °F 93% 29.91 in 10.0 mi SSE 3.5 mph - 0.00 in Rain Light Rain
9:53 AM 59.0 °F 55.0 °F 87% 29.90 in 10.0 mi ESE 4.6 mph - 0.00 in Rain Light Rain
10:53 AM 63.0 °F 55.9 °F 78% 29.88 in 10.0 mi SW 9.2 mph - 0.00 in Rain Light Rain
11:28 AM 62.1 °F 55.9 °F 80% 29.87 in 10.0 mi SW 8.1 mph - 0.00 in Rain Light Rain
11:53 AM 61.0 °F 57.0 °F 87% 29.88 in 5.0 mi West 11.5 mph - 0.00 in Rain Light Rain
12:05 PM 59.0 °F 55.9 °F 90% 29.88 in 2.5 mi NW 11.5 mph - 0.02 in Rain Light Rain
12:15 PM 57.9 °F 55.9 °F 93% 29.88 in 1.5 mi NW 10.4 mph - 0.06 in Rain Rain
12:21 PM 57.9 °F 55.9 °F 93% 29.88 in 2.5 mi NW 8.1 mph - 0.08 in Rain Light Rain
12:28 PM 57.9 °F 55.9 °F 93% 29.88 in 5.0 mi NW 11.5 mph - 0.08 in Rain Light Rain
12:36 PM 57.9 °F 55.9 °F 93% 29.87 in 2.5 mi NNW 11.5 mph 17.3 mph 0.09 in Rain Light Rain
12:48 PM 57.2 °F 55.4 °F 94% 29.87 in 5.0 mi NNW 10.4 mph - 0.10 in Rain Light Rain
12:53 PM 57.9 °F 55.9 °F 93% 29.87 in 10.0 mi NW 10.4 mph - 0.10 in Rain Light Rain
1:40 PM 59.0 °F 55.9 °F 90% 29.87 in 10.0 mi NNW 11.5 mph 23.0 mph 0.00 in   Overcast
1:53 PM 59.0 °F 54.0 °F 83% 29.87 in 10.0 mi NNW 18.4 mph 31.1 mph 0.00 in   Overcast
2:08 PM 60.1 °F 54.0 °F 80% 29.86 in 10.0 mi North 19.6 mph - N/A   Overcast
2:17 PM 62.1 °F 55.0 °F 78% 29.85 in 10.0 mi North 18.4 mph 29.9 mph N/A   Mostly Cloudy
2:53 PM 63.0 °F 54.0 °F 72% 29.85 in 10.0 mi North 16.1 mph 25.3 mph N/A   Mostly Cloudy
3:09 PM 62.1 °F 53.1 °F 72% 29.85 in 10.0 mi North 15.0 mph 25.3 mph N/A   Mostly Cloudy
3:40 PM 62.1 °F 52.0 °F 70% 29.86 in 10.0 mi North 18.4 mph 26.5 mph N/A   Mostly Cloudy
3:53 PM 62.1 °F 51.1 °F 67% 29.86 in 10.0 mi North 15.0 mph 29.9 mph N/A   Mostly Cloudy
4:53 PM 63.0 °F 53.1 °F 70% 29.86 in 10.0 mi North 12.7 mph - N/A   Mostly Cloudy
5:35 PM 60.1 °F 53.1 °F 78% 29.87 in 2.5 mi North 16.1 mph 26.5 mph 0.00 in Rain Rain
5:46 PM 57.9 °F 55.0 °F 90% 29.86 in 5.0 mi North 10.4 mph - 0.06 in Rain Light Rain
5:53 PM 59.0 °F 55.0 °F 87% 29.86 in 10.0 mi North 10.4 mph - 0.06 in Rain Light Rain
6:53 PM 62.1 °F 55.0 °F 78% 29.86 in 10.0 mi North 9.2 mph - 0.00 in   Clear
7:53 PM 60.1 °F 53.1 °F 78% 29.89 in 10.0 mi North 11.5 mph - N/A   Mostly Cloudy
8:53 PM 55.0 °F 52.0 °F 89% 29.90 in 9.0 mi North 9.2 mph 19.6 mph 0.00 in Rain Light Rain
9:53 PM 54.0 °F 51.1 °F 90% 29.92 in 10.0 mi NNW 10.4 mph - 0.00 in   Partly Cloudy
10:53 PM 52.0 °F 50.0 °F 93% 29.92 in 10.0 mi NNW 9.2 mph - N/A   Partly Cloudy
11:53 PM 52.0 °F 50.0 °F 93% 29.93 in 10.0 mi NNW 9.2 mph - N/A   Scattered Clouds